SV2MJJ Weather Reports


Display with metric or nautical units.
time (UTC)temp
F
wind
direction
speed
MPH
gust
MPH
rain 1hr
in
rain 24hr
in
rain mn
in
humidity
%
barometer
mb
20210727181545 88 41 0.0 0.0 0.00 0.00 0.00 54 1013.1
20210727181052 89 41 0.0 0.0 0.00 0.00 0.00 54 1013.0
20210727180552 89 41 0.0 0.0 0.00 0.00 0.00 53 1012.9
20210727180100 89 41 0.0 0.0 0.00 0.00 0.00 53 1012.8
20210727175538 89 41 0.0 0.0 0.00 0.00 0.00 54 1012.9
20210727175038 89 41 0.0 0.0 0.00 0.00 0.00 54 1012.8
20210727174537 89 41 0.0 0.0 0.00 0.00 0.00 55 1012.9
20210727174044 89 41 0.0 0.0 0.00 0.00 0.00 55 1012.9
20210727173551 89 41 0.0 0.0 0.00 0.00 0.00 55 1012.8
20210727173049 89 42 0.0 0.0 0.00 0.00 0.00 55 1012.6
20210727172549 90 42 0.0 0.0 0.00 0.00 0.00 54 1012.7
20210727172037 90 44 0.0 0.0 0.00 0.00 0.00 54 1012.8
20210727171534 90 43 0.0 0.0 0.00 0.00 0.00 53 1012.6
20210727171039 90 42 0.0 0.0 0.00 0.00 0.00 52 1012.7
20210727170548 91 43 0.0 0.0 0.00 0.00 0.00 52 1012.8
20210727170052 91 43 0.0 0.0 0.00 0.00 0.00 52 1012.8
20210727165554 91 44 0.0 0.0 0.00 0.00 0.00 51 1012.7
20210727165040 91 49 0.0 0.0 0.00 0.00 0.00 51 1012.6
20210727164548 92 51 0.0 0.0 0.00 0.00 0.00 51 1012.5
20210727164041 92 51 0.0 0.0 0.00 0.00 0.00 51 1012.8
20210727163551 92 52 0.0 0.0 0.00 0.00 0.00 50 1012.6
20210727163054 92 51 0.0 0.0 0.00 0.00 0.00 50 1012.7
20210727162558 92 57 0.0 0.0 0.00 0.00 0.00 50 1012.7
20210727162053 93 58 0.0 0.0 0.00 0.00 0.00 49 1012.6
20210727161542 93 58 0.0 0.0 0.00 0.00 0.00 49 1012.6
20210727161040 93 55 0.0 0.0 0.00 0.00 0.00 49 1012.6
20210727160544 93 55 0.0 0.0 0.00 0.00 0.00 49 1012.6
20210727160049 93 51 0.0 0.0 0.00 0.00 0.00 48 1012.6
20210727155556 93 57 0.0 0.0 0.00 0.00 0.00 48 1012.6
20210727155051 93 58 0.0 0.0 0.00 0.00 0.00 48 1012.7
20210727154539 93 60 0.0 0.0 0.00 0.00 0.00 48 1012.7
20210727154046 93 57 0.0 0.0 0.00 0.00 0.00 49 1012.7
20210727153544 93 57 0.0 0.0 0.00 0.00 0.00 49 1012.7
20210727153051 93 55 0.0 0.0 0.00 0.00 0.00 48 1012.8
20210727152559 93 55 0.0 0.0 0.00 0.00 0.00 48 1012.9
20210727152035 93 52 0.0 0.0 0.00 0.00 0.00 48 1012.9
20210727151534 93 53 0.0 0.0 0.00 0.00 0.00 47 1013.0
20210727151041 93 59 0.0 0.0 0.00 0.00 0.00 48 1013.0
20210727150553 93 58 0.0 0.0 0.00 0.00 0.00 48 1012.9
20210727150046 93 61 0.0 0.0 0.00 0.00 0.00 48 1012.9
20210727145536 93 72 0.0 0.0 0.00 0.00 0.00 47 1012.9
20210727145101 94 74 0.0 0.0 0.00 0.00 0.00 46 1012.9
20210727144541 94 84 0.0 0.0 0.00 0.00 0.00 45 1013.0
20210727144038 94 87 0.0 0.0 0.00 0.00 0.00 45 1013.1
20210727143548 94 88 0.0 0.0 0.00 0.00 0.00 45 1013.1
20210727143042 95 89 0.0 0.0 0.00 0.00 0.00 45 1013.2
20210727142549 95 98 0.0 0.0 0.00 0.00 0.00 45 1013.2
20210727142035 95 107 0.0 0.0 0.00 0.00 0.00 44 1013.2
20210727141542 95 112 0.0 0.0 0.00 0.00 0.00 44 1013.2
20210727141036 95 113 0.0 0.0 0.00 0.00 0.00 45 1013.3
20210727140545 95 113 0.0 0.0 0.00 0.00 0.00 45 1013.3
20210727140050 95 115 0.0 0.0 0.00 0.00 0.00 45 1013.3
20210727135554 95 119 0.0 0.0 0.00 0.00 0.00 45 1013.3
20210727135050 95 119 0.0 0.0 0.00 0.00 0.00 45 1013.3
20210727134541 95 119 0.0 0.0 0.00 0.00 0.00 45 1013.4
20210727134101 96 120 0.0 0.0 0.00 0.00 0.00 45 1013.5
20210727133537 96 124 0.0 0.0 0.00 0.00 0.00 45 1013.4
20210727133047 96 124 0.0 0.0 0.00 0.00 0.00 45 1013.5
20210727132556 96 124 0.0 0.0 0.00 0.00 0.00 45 1013.7
20210727132046 96 126 0.0 0.0 0.00 0.00 0.00 45 1013.8
20210727131534 96 126 0.0 0.0 0.00 0.00 0.00 46 1013.7
20210727131039 96 125 0.0 0.0 0.00 0.00 0.00 47 1013.8
20210727130534 96 126 0.0 0.0 0.00 0.00 0.00 48 1013.9
20210727130037 95 126 0.0 0.0 0.00 0.00 0.00 49 1013.8
20210727125546 95 124 0.0 0.0 0.00 0.00 0.00 50 1013.8
20210727125053 95 119 0.0 0.0 0.00 0.00 0.00 50 1014.0
20210727124544 95 118 0.0 0.0 0.00 0.00 0.00 50 1014.0
20210727124050 95 118 0.0 0.0 0.00 0.00 0.00 50 1014.0
20210727123559 95 117 0.0 0.0 0.00 0.00 0.00 50 1014.1
20210727123051 96 115 0.0 0.0 0.00 0.00 0.00 49 1014.1
20210727122539 96 132 0.0 0.0 0.00 0.00 0.00 50 1014.2
20210727122048 96 132 0.0 0.0 0.00 0.00 0.00 49 1014.2
20210727121548 96 132 0.0 0.0 0.00 0.00 0.00 49 1014.3
20210727121049 95 132 0.0 0.0 0.00 0.00 0.00 49 1014.2
20210727120601 95 132 0.0 0.0 0.00 0.00 0.00 49 1014.3
20210727120041 95 133 0.0 0.0 0.00 0.00 0.00 49 1014.4
20210727115544 95 133 0.0 0.0 0.00 0.00 0.00 50 1014.5
20210727115050 94 134 0.0 0.0 0.00 0.00 0.00 50 1014.5
20210727114548 94 133 0.0 0.0 0.00 0.00 0.00 50 1014.6
20210727114035 93 135 0.0 0.0 0.00 0.00 0.00 51 1014.7
20210727113541 93 135 0.0 0.0 0.00 0.00 0.00 51 1014.7
20210727113041 93 136 0.0 0.0 0.00 0.00 0.00 51 1014.7
20210727112550 93 134 0.0 0.0 0.00 0.00 0.00 49 1014.5
20210727112054 93 133 0.0 0.0 0.00 0.00 0.00 49 1014.7
20210727111535 92 133 0.0 0.0 0.00 0.00 0.00 50 1014.8
20210727111045 92 133 0.0 0.0 0.00 0.00 0.00 50 1014.9
20210727110550 92 132 0.0 0.0 0.00 0.00 0.00 49 1015.1
20210727110054 92 131 0.0 0.0 0.00 0.00 0.00 49 1015.1
20210727105550 92 124 0.0 0.0 0.00 0.00 0.00 48 1015.1
20210727105039 92 122 0.0 0.0 0.00 0.00 0.00 48 1015.2
20210727104536 91 122 0.0 0.0 0.00 0.00 0.00 49 1015.3
20210727104043 92 122 0.0 0.0 0.00 0.00 0.00 49 1015.2
20210727103551 91 122 0.0 0.0 0.00 0.00 0.00 50 1015.4
20210727103052 91 122 0.0 0.0 0.00 0.00 0.00 51 1015.4
20210727102553 90 122 0.0 0.0 0.00 0.00 0.00 51 1015.6
20210727102040 90 122 0.0 0.0 0.00 0.00 0.00 52 1015.6
20210727101548 90 115 0.0 0.0 0.00 0.00 0.00 52 1015.7
20210727101042 90 115 0.0 0.0 0.00 0.00 0.00 53 1015.6
20210727100551 90 115 0.0 0.0 0.00 0.00 0.00 54 1015.6
20210727100059 90 113 0.0 0.0 0.00 0.00 0.00 54 1015.7
20210727095553 90 111 0.0 0.0 0.00 0.00 0.00 53 1015.8
20210727095042 90 80 0.0 0.0 0.00 0.00 0.00 53 1015.9
20210727094549 90 80 0.0 0.0 0.00 0.00 0.00 53 1015.7
20210727094043 90 64 0.0 0.0 0.00 0.00 0.00 53 1015.8
20210727093548 90 64 0.0 0.0 0.00 0.00 0.00 54 1015.8
20210727093052 89 54 0.0 0.0 0.00 0.00 0.00 54 1015.8
20210727092555 89 50 0.0 0.0 0.00 0.00 0.00 55 1015.8
20210727092052 88 50 0.0 0.0 0.00 0.00 0.00 56 1015.8
20210727091540 88 49 0.0 0.0 0.00 0.00 0.00 57 1015.8
20210727091039 87 48 0.0 0.0 0.00 0.00 0.00 57 1015.8
20210727090543 88 43 0.0 0.0 0.00 0.00 0.00 57 1015.9
20210727090048 87 30 0.0 0.0 0.00 0.00 0.00 58 1015.9
20210727085556 86 30 0.0 0.0 0.00 0.00 0.00 59 1016.0
20210727085046 86 30 0.0 0.0 0.00 0.00 0.00 58 1016.0
20210727084535 86 29 0.0 0.0 0.00 0.00 0.00 59 1016.0
20210727084101 86 29 0.0 0.0 0.00 0.00 0.00 60 1016.0
20210727083541 85 29 0.0 0.0 0.00 0.00 0.00 61 1016.0
20210727083046 85 29 0.0 0.0 0.00 0.00 0.00 60 1016.0
20210727082554 85 29 0.0 0.0 0.00 0.00 0.00 61 1016.2
20210727082045 85 29 0.0 0.0 0.00 0.00 0.00 62 1016.2
20210727081549 84 29 0.0 0.0 0.00 0.00 0.00 61 1016.3
20210727081036 84 29 0.0 0.0 0.00 0.00 0.00 61 1016.4
20210727080536 84 24 0.0 0.0 0.00 0.00 0.00 62 1016.3
20210727080041 84 24 0.0 0.0 0.00 0.00 0.00 61 1016.4
20210727075548 84 26 0.0 0.0 0.00 0.00 0.00 62 1016.4
20210727075049 84 26 0.0 0.0 0.00 0.00 0.00 62 1016.4
20210727074549 84 26 0.0 0.0 0.00 0.00 0.00 62 1016.3
20210727074050 83 26 0.0 0.0 0.00 0.00 0.00 62 1016.3
20210727073600 83 26 0.0 0.0 0.00 0.00 0.00 63 1016.3
20210727073038 83 26 0.0 0.0 0.00 0.00 0.00 62 1016.4
20210727072541 83 26 0.0 0.0 0.00 0.00 0.00 63 1016.3
20210727072047 83 26 0.0 0.0 0.00 0.00 0.00 63 1016.4
20210727071542 82 26 0.0 0.0 0.00 0.00 0.00 65 1016.3
20210727071048 82 26 0.0 0.0 0.00 0.00 0.00 65 1016.2
20210727070553 82 26 0.0 0.0 0.00 0.00 0.00 66 1016.3
20210727070100 82 26 0.0 0.0 0.00 0.00 0.00 66 1016.3
20210727065539 81 26 0.0 0.0 0.00 0.00 0.00 66 1016.4
20210727065040 81 26 0.0 0.0 0.00 0.00 0.00 67 1016.4
20210727064539 81 26 0.0 0.0 0.00 0.00 0.00 68 1016.3
20210727064045 81 26 0.0 0.0 0.00 0.00 0.00 68 1016.5
20210727063536 81 26 0.0 0.0 0.00 0.00 0.00 68 1016.3
20210727063059 81 26 0.0 0.0 0.00 0.00 0.00 67 1016.5
20210727062536 80 26 0.0 0.0 0.00 0.00 0.00 68 1016.5
20210727062044 80 26 0.0 0.0 0.00 0.00 0.00 69 1016.4
20210727061549 80 26 0.0 0.0 0.00 0.00 0.00 68 1016.5
20210727061042 80 26 0.0 0.0 0.00 0.00 0.00 68 1016.4
20210727060543 80 26 0.0 0.0 0.00 0.00 0.00 68 1016.4
20210727060034 80 26 0.0 0.0 0.00 0.00 0.00 69 1016.2
20210727055541 80 26 0.0 0.0 0.00 0.00 0.00 68 1016.4
20210727055038 79 26 0.0 0.0 0.00 0.00 0.00 68 1016.3
20210727054542 79 26 0.0 0.0 0.00 0.00 0.00 68 1016.2
20210727054050 79 26 0.0 0.0 0.00 0.00 0.00 67 1016.2
20210727053557 79 26 0.0 0.0 0.00 0.00 0.00 67 1016.2
20210727053035 79 26 0.0 0.0 0.00 0.00 0.00 68 1016.3
20210727052538 78 26 0.0 0.0 0.00 0.00 0.00 68 1016.4
20210727052047 78 26 0.0 0.0 0.00 0.00 0.00 66 1016.4
20210727051549 77 26 0.0 0.0 0.00 0.00 0.00 64 1016.4
20210727051045 77 26 0.0 0.0 0.00 0.00 0.00 65 1016.4
20210727050534 76 26 0.0 0.0 0.00 0.00 0.00 66 1016.4
20210727050057 76 26 0.0 0.0 0.00 0.00 0.00 66 1016.4
20210727045537 76 26 0.0 0.0 0.00 0.00 0.00 67 1016.5
20210727045035 75 26 0.0 0.0 0.00 0.00 0.00 67 1016.5
20210727044544 75 26 0.0 0.0 0.00 0.00 0.00 68 1016.3
20210727044036 75 26 0.0 0.0 0.00 0.00 0.00 68 1016.4
20210727043538 75 26 0.0 0.0 0.00 0.00 0.00 69 1016.4
20210727043040 74 26 0.0 0.0 0.00 0.00 0.00 69 1016.3
20210727042548 74 26 0.0 0.0 0.00 0.00 0.00 69 1016.3
20210727042041 74 26 0.0 0.0 0.00 0.00 0.00 69 1016.3
20210727041550 74 26 0.0 0.0 0.00 0.00 0.00 69 1016.3
20210727041056 74 26 0.0 0.0 0.00 0.00 0.00 69 1016.1
20210727040546 74 26 0.0 0.0 0.00 0.00 0.00 69 1016.2
20210727040053 74 26 0.0 0.0 0.00 0.00 0.00 69 1016.2
20210727035540 74 26 0.0 0.0 0.00 0.00 0.00 69 1016.2
20210727035043 74 28 0.0 0.0 0.00 0.00 0.00 69 1016.1
20210727034537 74 29 0.0 0.0 0.00 0.00 0.00 69 1016.0
20210727034044 74 29 0.0 0.0 0.00 0.00 0.00 70 1015.9
20210727033551 74 29 0.0 0.0 0.00 0.00 0.00 70 1016.0
20210727033050 74 29 0.0 0.0 0.00 0.00 0.00 70 1015.9
20210727032549 74 29 0.0 0.0 0.00 0.00 0.00 70 1015.9
20210727032050 74 29 0.0 0.0 0.00 0.00 0.00 71 1015.8
20210727031538 74 29 0.0 0.0 0.00 0.00 0.00 71 1015.8
20210727031057 74 29 0.0 0.0 0.00 0.00 0.00 71 1015.8
20210727030534 74 29 0.0 0.0 0.00 0.00 0.00 71 1015.8
20210727030041 74 29 0.0 0.0 0.00 0.00 0.00 71 1015.8
20210727025544 74 30 0.0 0.0 0.00 0.00 0.00 71 1015.9
20210727025042 74 34 0.0 0.0 0.00 0.00 0.00 71 1015.8
20210727024551 74 34 0.0 0.0 0.00 0.00 0.00 71 1015.9
20210727024034 74 36 0.0 0.0 0.00 0.00 0.00 70 1015.9
20210727023559 74 36 0.0 0.0 0.00 0.00 0.00 70 1015.9
20210727023035 74 36 0.0 0.0 0.00 0.00 0.00 70 1015.9
20210727022546 74 37 0.0 0.0 0.00 0.00 0.00 70 1015.7
20210727022048 74 38 0.0 0.0 0.00 0.00 0.00 71 1015.9
20210727021546 74 38 0.0 0.0 0.00 0.00 0.00 71 1015.8
20210727021052 74 38 0.0 0.0 0.00 0.00 0.00 71 1015.8
20210727020537 74 38 0.0 0.0 0.00 0.00 0.00 71 1015.8
20210727020058 74 38 0.0 0.0 0.00 0.00 0.00 71 1015.8
20210727015537 74 38 0.0 0.0 0.00 0.00 0.00 71 1015.8
20210727015033 74 38 0.0 0.0 0.00 0.00 0.00 71 1015.8
20210727014542 75 38 0.0 0.0 0.00 0.00 0.00 70 1015.9
20210727014041 75 38 0.0 0.0 0.00 0.00 0.00 69 1015.8
20210727013549 75 38 0.0 0.0 0.00 0.00 0.00 69 1015.9
20210727013049 75 38 0.0 0.0 0.00 0.00 0.00 69 1015.8
20210727012559 75 38 0.0 0.0 0.00 0.00 0.00 69 1015.9
20210727012036 76 38 0.0 0.0 0.00 0.00 0.00 68 1015.9
20210727011544 76 38 0.0 0.0 0.00 0.00 0.00 68 1015.9
20210727011049 76 38 0.0 0.0 0.00 0.00 0.00 69 1015.9
20210727010548 76 38 0.0 0.0 0.00 0.00 0.00 69 1015.9
20210727010049 76 38 0.0 0.0 0.00 0.00 0.00 69 1015.9
20210727005555 76 38 0.0 0.0 0.00 0.00 0.00 69 1016.0
20210727005034 76 38 0.0 0.0 0.00 0.00 0.00 69 1015.9
20210727004544 76 38 0.0 0.0 0.00 0.00 0.00 69 1015.9
20210727004048 76 38 0.0 0.0 0.00 0.00 0.00 69 1015.9
20210727003549 76 38 0.0 0.0 0.00 0.00 0.00 69 1015.9
20210727003036 76 38 0.0 0.0 0.00 0.00 0.00 69 1015.9
20210727002541 76 38 0.0 0.0 0.00 0.00 0.00 70 1015.9
20210727002042 76 38 0.0 0.0 0.00 0.00 0.00 70 1015.9
20210727001552 76 38 0.0 0.0 0.00 0.00 0.00 70 1015.9
20210727001043 76 38 0.0 0.0 0.00 0.00 0.00 70 1015.9
20210727000538 76 38 0.0 0.0 0.00 0.00 0.00 70 1015.9
20210727000046 76 38 0.0 0.0 0.00 0.00 0.00 70 1015.9
20210726235556 76 38 0.0 0.0 0.00 0.00 0.00 70 1015.9
20210726235050 76 38 0.0 0.0 0.00 0.00 0.00 71 1015.9
20210726234540 76 38 0.0 0.0 0.00 0.00 0.00 71 1015.9
20210726234047 76 38 0.0 0.0 0.00 0.00 0.00 71 1015.9
20210726233545 76 38 0.0 0.0 0.00 0.00 0.00 70 1015.9
20210726233049 76 38 0.0 0.0 0.00 0.00 0.00 70 1015.9
20210726232556 76 39 0.0 0.0 0.00 0.00 0.00 69 1015.9
20210726232033 76 39 0.0 0.0 0.00 0.00 0.00 70 1015.8
20210726231537 77 39 0.0 0.0 0.00 0.00 0.00 70 1015.8
20210726231045 77 39 0.0 0.0 0.00 0.00 0.00 69 1015.9
20210726230547 77 39 0.0 0.0 0.00 0.00 0.00 70 1015.8
20210726230037 77 39 0.0 0.0 0.00 0.00 0.00 69 1015.8
20210726225602 77 39 0.0 0.0 0.00 0.00 0.00 69 1015.8
20210726225039 77 40 0.0 0.0 0.00 0.00 0.00 69 1015.8
20210726224550 77 40 0.0 0.0 0.00 0.00 0.00 69 1015.9
20210726224054 77 40 0.0 0.0 0.00 0.00 0.00 69 1015.8
20210726223537 77 40 0.0 0.0 0.00 0.00 0.00 70 1015.8
20210726223046 77 40 0.0 0.0 0.00 0.00 0.00 70 1015.8
20210726222549 77 40 0.0 0.0 0.00 0.00 0.00 69 1015.9
20210726222046 77 40 0.0 0.0 0.00 0.00 0.00 69 1015.9
20210726221536 77 40 0.0 0.0 0.00 0.00 0.00 69 1015.9
20210726221043 77 40 0.0 0.0 0.00 0.00 0.00 69 1015.8
20210726220539 78 40 0.0 0.0 0.00 0.00 0.00 68 1015.7
20210726220045 78 40 0.0 0.0 0.00 0.00 0.00 68 1015.6
20210726215555 78 40 0.0 0.0 0.00 0.00 0.00 68 1015.6
20210726215049 78 40 0.0 0.0 0.00 0.00 0.00 68 1015.6
20210726214541 78 40 0.0 0.0 0.00 0.00 0.00 68 1015.6
20210726214046 78 40 0.0 0.0 0.00 0.00 0.00 68 1015.6
20210726213537 78 40 0.0 0.0 0.00 0.00 0.00 68 1015.6
20210726213038 78 40 0.0 0.0 0.00 0.00 0.00 68 1015.5
20210726212545 78 40 0.0 0.0 0.00 0.00 0.00 67 1015.5
20210726212039 79 41 0.0 0.0 0.00 0.00 0.00 67 1015.4
20210726211547 79 41 0.0 0.0 0.00 0.00 0.00 67 1015.4
20210726211053 79 41 0.0 0.0 0.00 0.00 0.00 68 1015.4
20210726210550 79 41 0.0 0.0 0.00 0.00 0.00 68 1015.3
20210726210033 79 41 0.0 0.0 0.00 0.00 0.00 67 1015.3
20210726205541 79 41 0.0 0.0 0.00 0.00 0.00 67 1015.3
20210726205038 79 41 0.0 0.0 0.00 0.00 0.00 67 1015.2
20210726204543 79 41 0.0 0.0 0.00 0.00 0.00 67 1015.2
20210726204051 79 41 0.0 0.0 0.00 0.00 0.00 68 1015.2
20210726203559 80 41 0.0 0.0 0.00 0.00 0.00 68 1015.1
20210726203038 80 41 0.0 0.0 0.00 0.00 0.00 67 1015.1
20210726202545 80 41 0.0 0.0 0.00 0.00 0.00 67 1014.9
20210726202042 81 41 0.0 0.0 0.00 0.00 0.00 65 1014.9
20210726201550 81 41 0.0 0.0 0.00 0.00 0.00 64 1014.8
20210726201053 81 41 0.0 0.0 0.00 0.00 0.00 63 1014.8
20210726200534 81 41 0.0 0.0 0.00 0.00 0.00 63 1014.8
20210726200041 82 41 0.0 0.0 0.00 0.00 0.00 63 1014.8
20210726195538 82 41 0.0 0.0 0.00 0.00 0.00 62 1014.8
20210726195041 82 41 0.0 0.0 0.00 0.00 0.00 62 1014.8
20210726194551 82 41 0.0 0.0 0.00 0.00 0.00 62 1014.9
20210726194046 83 41 0.0 0.0 0.00 0.00 0.00 62 1014.9
20210726193550 83 41 0.0 0.0 0.00 0.00 0.00 61 1014.9
20210726193057 83 41 0.0 0.0 0.00 0.00 0.00 61 1014.8
20210726192535 83 41 0.0 0.0 0.00 0.00 0.00 61 1014.6
20210726192038 83 41 0.0 0.0 0.00 0.00 0.00 60 1014.6
20210726191546 84 41 0.0 0.0 0.00 0.00 0.00 60 1014.6
20210726191042 84 41 0.0 0.0 0.00 0.00 0.00 60 1014.4
20210726190544 84 41 0.0 0.0 0.00 0.00 0.00 60 1014.5
20210726190050 84 41 0.0 0.0 0.00 0.00 0.00 59 1014.5
20210726185558 84 41 0.0 0.0 0.00 0.00 0.00 59 1014.3
20210726185050 84 41 0.0 0.0 0.00 0.00 0.00 59 1014.3
20210726184535 84 41 0.0 0.0 0.00 0.00 0.00 58 1014.2
20210726184043 84 41 0.0 0.0 0.00 0.00 0.00 58 1014.2
20210726183541 84 42 0.0 0.0 0.00 0.00 0.00 58 1014.1
20210726183045 84 43 0.0 0.0 0.00 0.00 0.00 58 1014.0
20210726182553 85 43 0.0 0.0 0.00 0.00 0.00 58 1014.0
20210726182057 85 43 0.0 0.0 0.00 0.00 0.00 58 1013.9